Wind_Speed
6 7 7 7 8 7 7 7 6 6 6 5 4 4 4 5 5 5 5 5 6 6 7 7 8 8 8 9 10 11 12 12 12 12 12 13 13 13 13 13 12 12 13
6 6 6 6 6 6 5 6 5 5 5 4 4 4 4 4 4 5 5 5 5 6 6 7 7 8 8 9 10 11 11 11 12 13 12 13 13 13 13 13 13 12 12
6 6 5 5 5 4 4 4 5 4 4 4 4 4 4 4 4 5 5 5 5 5 6 7 7 7 8 9 9 10 10 12 12 12 12 12 12 13 13 13 13 12 12
5 5 5 4 4 3 3 4 4 4 4 3 3 3 4 4 4 4 4 4 5 5 6 6 6 7 8 9 9 10 10 11 11 10 10 11 11 11 12 13 13 13 13
4 4 4 4 3 3 3 4 4 4 3 3 3 3 3 3 3 2 3 4 4 5 5 5 6 7 8 9 9 10 10 9 8 8 8 9 9 9 10 12 12 13 13
4 4 4 3 3 3 4 4 3 3 2 2 2 2 2 2 2 2 3 3 4 5 6 6 6 7 8 9 9 9 8 7 6 6 6 6 7 8 9 9 10 11 12
4 4 4 3 3 3 4 3 3 3 2 2 2 1 1 2 2 2 2 3 4 5 6 6 6 7 8 8 9 8 8 7 6 6 5 5 6 6 7 7 8 8 8
4 4 3 4 4 4 4 3 3 2 2 1 1 1 1 1 1 2 2 3 4 5 6 6 7 8 8 9 8 7 8 8 6 6 5 5 5 5 5 5 6 6 6
5 4 4 4 4 4 3 3 3 2 2 2 2 1 1 1 1 1 2 3 4 5 6 7 7 8 8 8 8 8 7 6 6 6 6 5 5 5 5 5 5 6 6
5 4 4 4 4 3 3 3 3 2 2 2 1 1 1 2 2 2 3 4 5 5 6 7 7 7 7 7 7 8 7 7 7 6 6 5 5 6 6 6 6 6 6
4 5 4 4 4 4 4 3 3 2 2 2 2 1 2 2 2 2 2 3 4 5 6 6 6 7 7 7 7 7 7 7 7 7 6 6 6 6 6 6 6 6 7
4 4 4 5 4 4 4 3 3 3 2 2 2 2 2 2 2 2 3 3 4 5 6 6 6 7 7 7 7 7 7 7 7 7 7 7 7 7 7 7 7 8 8
6 5 5 5 5 4 4 4 3 3 3 2 2 2 3 3 3 3 3 3 4 5 6 6 7 7 7 8 8 7 7 7 7 7 7 7 7 7 8 8 9 9 10
7 6 6 6 5 5 5 4 4 3 3 3 3 3 3 3 3 3 3 4 5 5 6 7 7 7 7 8 8 7 7 7 7 8 8 8 9 9 10 10 11 11 12
7 7 6 6 5 5 5 5 5 4 4 4 4 4 4 4 4 4 4 5 5 5 6 7 8 8 8 8 8 8 8 8 9 9 10 10 10 11 12 12 12 13 14
7 7 7 6 6 6 6 5 5 4 4 4 5 5 5 5 5 5 5 5 5 6 7 8 9 9 9 9 9 9 9 9 10 10 10 11 11 12 12 13 14 14 15
8 8 8 7 7 6 6 6 6 6 5 5 5 5 5 5 6 6 6 7 7 7 8 9 9 9 10 10 9 10 10 11 11 11 11 12 13 13 14 14 15 15 16
10 9 8 8 7 7 6 6 6 6 6 5 5 5 6 6 6 6 7 7 8 8 9 9 9 9 10 10 10 10 10 11 11 12 13 13 14 14 15 16 16 16 17
11 10 10 9 8 8 7 7 7 6 6 6 6 6 6 7 7 7 7 7 8 8 8 9 9 10 10 10 10 11 11 12 12 13 14 14 15 15 16 16 17 18 19
12 11 11 10 9 8 8 8 7 7 7 7 7 7 7 7 7 8 8 9 9 9 9 10 10 11 11 11 12 13 13 13 15 14 15 15 16 17 17 18 19 20 21
12 11 12 11 10 9 9 9 9 8 7 7 7 8 8 8 8 9 9 10 10 10 10 11 11 11 12 13 13 14 15 16 16 16 16 17 17 18 19 20 21 21 22
12 12 12 12 12 11 10 10 10 9 9 8 8 9 9 9 9 10 10 10 10 11 11 12 12 13 14 14 15 15 16 17 18 18 18 19 19 20 21 21 22 23 24
13 12 12 12 12 12 11 11 10 10 11 11 10 11 11 10 11 11 11 12 12 13 13 14 14 14 15 16 16 16 17 18 19 20 20 21 22 22 23 24 25 26 26
13 13 13 13 13 13 13 13 13 12 12 12 12 13 13 13 13 13 13 14 14 15 15 16 16 17 17 17 17 18 19 20 21 22 23 23 24 25 26 27 28 28 29
13 13 14 14 13 13 14 13 13 13 13 13 13 14 14 14 14 15 15 15 16 16 17 17 18 18 18 19 20 21 22 23 23 24 25 26 26 27 28 29 30 30 31
14 14 14 13 14 14 14 14 14 14 14 14 14 15 16 16 16 16 16 17 17 18 19 19 19 19 20 21 22 23 23 24 25 25 26 27 27 28 29 30 32 33 34
Wind_Direction
262 266 265 259 252 245 251 255 252 254 257 260 266 272 277 284 288 288 292 297 295 296 297 298 299 297 293 289 285 281 278 276 272 271 271 269 268 268 271 274 274 271 270
264 266 266 263 253 244 250 242 240 240 249 255 266 270 277 286 291 297 299 298 303 307 302 303 306 302 293 292 294 291 284 278 273 270 271 269 268 268 271 274 275 272 269
264 263 265 255 245 242 241 228 224 228 243 253 257 261 273 291 301 303 303 301 304 307 315 313 310 306 300 299 300 299 294 286 280 272 273 271 270 270 271 273 273 270 268
254 255 253 244 237 235 225 219 220 231 239 246 248 258 274 287 295 308 315 318 313 319 324 319 311 311 309 308 307 308 304 299 286 275 272 272 274 274 273 273 271 268 267
242 246 246 235 227 222 210 212 223 233 236 237 242 263 271 281 296 317 328 329 332 333 329 327 325 324 322 319 314 314 311 307 294 279 276 277 280 281 279 275 271 266 265
241 237 229 224 209 202 201 212 223 225 235 244 255 263 272 298 319 330 330 331 335 336 336 338 335 332 332 331 328 324 323 322 312 296 290 290 293 288 286 281 276 269 266
235 228 214 204 196 193 195 203 204 210 225 247 249 254 283 317 334 341 343 344 345 344 342 337 333 333 334 333 334 330 333 330 329 317 306 301 299 302 298 297 292 280 267
223 216 213 201 194 192 192 197 201 212 228 226 231 248 305 334 336 358 359 349 350 351 348 343 339 342 341 340 338 335 333 335 337 332 324 317 310 311 314 315 311 293 276
221 222 210 193 182 181 189 199 209 216 223 226 235 246 279 299 321 334 338 344 349 351 350 347 349 350 345 342 342 342 336 339 347 348 345 334 322 322 326 323 315 307 296
216 216 200 188 186 185 194 206 207 205 212 222 247 262 282 285 297 315 319 330 337 339 341 343 344 346 346 345 341 347 350 353 347 345 348 349 332 324 323 321 315 311 300
217 218 204 194 194 194 196 202 207 210 218 235 255 276 298 298 299 299 314 328 337 341 342 345 348 349 347 347 346 344 351 349 347 346 346 346 344 338 329 322 316 310 303
216 213 205 199 201 199 201 205 215 222 235 245 255 281 300 306 310 308 316 324 336 345 349 350 353 357 358 354 350 350 351 351 348 345 344 342 343 346 341 334 326 317 311
220 217 211 208 209 205 207 215 223 226 238 250 264 285 296 298 302 311 317 324 331 336 343 349 350 353 352 352 350 347 349 352 349 348 346 343 341 338 337 331 325 321 315
221 218 214 213 212 212 216 227 232 238 245 244 262 277 287 294 299 304 316 320 324 328 335 339 338 339 339 340 340 339 337 339 341 339 337 335 332 327 324 323 319 316 313
221 219 216 215 216 216 223 232 234 244 248 251 263 273 282 285 289 296 307 312 315 325 333 334 335 334 333 328 329 333 332 329 328 327 326 324 324 324 322 321 318 315 316
219 218 216 218 224 227 231 235 242 243 247 258 265 270 277 279 284 290 298 306 310 317 324 329 331 333 333 330 329 329 329 328 326 325 324 324 323 321 320 321 321 321 319
222 225 223 225 229 231 232 238 243 248 254 259 262 268 274 278 281 285 293 299 303 306 314 321 324 325 326 325 322 323 323 322 321 320 319 319 318 318 318 321 319 318 317
227 227 224 226 233 237 235 237 244 250 256 257 260 270 276 279 283 286 291 296 301 304 309 315 317 319 321 320 322 324 321 320 319 317 315 315 315 315 316 318 317 316 316
231 232 229 232 239 240 238 240 246 252 258 261 266 273 279 282 288 291 295 299 302 306 308 312 315 318 319 319 318 319 317 316 318 315 313 313 314 315 316 315 315 314 315
234 235 234 233 238 241 243 246 249 254 257 265 270 274 283 287 290 293 298 300 302 303 306 309 313 316 316 315 314 315 314 313 315 315 314 315 315 315 314 313 312 312 312
231 234 237 237 238 239 242 246 249 254 261 269 273 276 282 287 289 292 296 298 300 302 304 306 309 311 313 314 314 314 313 313 315 314 313 313 314 313 313 312 312 312 311
233 238 240 240 240 242 245 252 255 257 264 271 277 281 287 287 286 289 292 296 301 304 305 304 306 308 309 311 312 311 311 312 313 313 311 310 311 312 312 312 312 311 310
233 237 240 241 242 244 247 251 256 261 266 271 276 281 286 288 289 290 292 295 298 301 302 302 304 306 308 309 310 309 308 309 310 310 310 310 310 310 310 310 311 310 310
236 240 244 247 248 249 251 254 259 264 268 271 273 277 282 286 288 290 293 295 297 299 301 301 302 303 305 307 309 308 307 307 307 307 307 308 308 309 309 309 310 310 309
240 242 245 247 248 252 254 258 263 263 266 271 276 280 282 284 287 289 291 293 295 298 299 299 300 301 302 304 306 306 307 308 307 307 306 306 306 307 308 308 309 309 308
242 244 245 248 251 252 255 259 264 266 269 272 276 280 283 283 284 287 289 291 293 295 296 297 297 298 299 301 304 306 307 308 309 308 307 306 305 305 306 307 308 308 308
Height
5854 5854 5854 5855 5855 5856 5856 5856 5857 5857 5858 5858 5858 5858 5858 5858 5858 5858 5858 5857 5857 5856 5855 5855 5854 5854 5853 5853 5852 5852 5852 5851 5851 5851 5851 5851 5851 5851 5850 5850 5849 5848 5847
5853 5853 5853 5853 5854 5854 5854 5855 5855 5856 5856 5857 5857 5857 5857 5857 5857 5857 5856 5856 5856 5855 5854 5853 5853 5852 5851 5851 5850 5849 5848 5848 5848 5848 5847 5847 5847 5847 5847 5847 5846 5846 5845
5851 5851 5852 5852 5852 5853 5853 5853 5854 5855 5855 5856 5856 5856 5856 5856 5856 5856 5855 5855 5855 5854 5853 5852 5852 5851 5850 5849 5848 5847 5846 5844 5844 5844 5844 5844 5844 5844 5844 5844 5843 5842 5842
5850 5850 5851 5851 5852 5852 5852 5853 5853 5854 5855 5855 5855 5855 5855 5855 5855 5855 5855 5854 5854 5853 5852 5852 5851 5850 5848 5847 5846 5845 5842 5839 5838 5839 5840 5841 5841 5841 5840 5840 5839 5839 5839
5849 5849 5850 5850 5851 5851 5852 5852 5853 5853 5854 5854 5855 5855 5855 5855 5855 5854 5854 5853 5853 5852 5852 5851 5850 5849 5848 5846 5845 5843 5840 5836 5834 5835 5837 5838 5838 5838 5837 5836 5835 5835 5835
5848 5848 5849 5849 5850 5851 5851 5852 5852 5853 5853 5854 5854 5854 5854 5854 5854 5854 5853 5853 5852 5852 5851 5850 5849 5848 5847 5845 5844 5842 5840 5837 5835 5835 5836 5836 5836 5836 5835 5833 5832 5831 5831
5847 5848 5848 5849 5849 5850 5851 5852 5852 5853 5853 5853 5854 5854 5854 5853 5854 5853 5853 5852 5852 5851 5851 5850 5849 5847 5846 5845 5843 5842 5840 5838 5837 5836 5836 5835 5835 5834 5833 5831 5830 5830 5830
5847 5847 5848 5848 5849 5850 5851 5851 5852 5853 5853 5853 5853 5854 5853 5854 5853 5853 5853 5852 5852 5851 5850 5849 5848 5847 5846 5844 5843 5842 5840 5839 5838 5837 5836 5835 5834 5833 5832 5831 5830 5829 5829
5846 5847 5847 5848 5849 5849 5850 5851 5852 5852 5852 5853 5853 5853 5853 5853 5853 5853 5852 5852 5851 5851 5850 5849 5848 5847 5845 5844 5842 5841 5840 5839 5838 5837 5836 5835 5834 5833 5832 5831 5830 5830 5829
5845 5846 5847 5848 5849 5849 5850 5851 5851 5852 5852 5852 5853 5853 5853 5853 5853 5852 5852 5852 5851 5851 5850 5849 5847 5846 5845 5844 5842 5841 5840 5839 5838 5837 5836 5835 5834 5834 5833 5832 5831 5830 5828
5845 5846 5847 5847 5848 5849 5850 5850 5851 5851 5852 5852 5852 5852 5852 5852 5852 5852 5852 5851 5851 5850 5849 5848 5847 5846 5844 5843 5842 5840 5840 5839 5838 5837 5836 5835 5834 5833 5832 5831 5830 5829 5828
5844 5845 5846 5847 5848 5849 5849 5850 5850 5851 5851 5852 5852 5852 5852 5852 5852 5852 5851 5851 5850 5850 5848 5847 5846 5845 5844 5843 5841 5840 5839 5838 5838 5837 5836 5835 5833 5832 5831 5830 5829 5828 5827
5844 5845 5846 5846 5847 5848 5849 5849 5850 5850 5851 5851 5851 5851 5851 5851 5851 5851 5851 5850 5850 5849 5848 5847 5846 5844 5843 5842 5841 5840 5839 5838 5837 5836 5835 5834 5833 5832 5830 5829 5828 5827 5826
5843 5844 5845 5846 5847 5847 5848 5849 5849 5849 5850 5850 5850 5850 5850 5851 5851 5850 5850 5850 5849 5848 5847 5846 5845 5844 5842 5841 5840 5839 5838 5837 5836 5835 5834 5833 5832 5830 5829 5828 5827 5825 5823
5842 5843 5844 5845 5846 5847 5847 5848 5848 5849 5849 5850 5850 5850 5849 5850 5850 5849 5849 5849 5848 5847 5846 5845 5844 5843 5841 5839 5838 5838 5837 5836 5835 5833 5832 5831 5830 5829 5827 5826 5824 5822 5821
5841 5842 5843 5844 5845 5846 5846 5847 5847 5848 5848 5848 5849 5849 5848 5848 5848 5848 5848 5847 5847 5846 5845 5844 5843 5841 5839 5838 5837 5836 5835 5834 5833 5832 5831 5829 5828 5827 5825 5824 5822 5820 5818
5840 5841 5842 5843 5844 5844 5845 5846 5846 5847 5847 5847 5847 5847 5847 5847 5847 5847 5846 5846 5845 5845 5844 5843 5841 5840 5838 5837 5835 5834 5834 5833 5831 5830 5829 5827 5826 5824 5822 5821 5819 5817 5815
5838 5840 5841 5842 5842 5843 5844 5844 5845 5845 5846 5846 5846 5846 5846 5846 5845 5845 5845 5844 5843 5843 5842 5841 5840 5838 5837 5835 5834 5833 5831 5830 5829 5828 5826 5825 5823 5821 5819 5818 5816 5814 5812
5836 5838 5839 5840 5841 5842 5842 5843 5844 5844 5844 5844 5844 5844 5844 5844 5844 5843 5843 5842 5842 5841 5840 5839 5838 5836 5835 5834 5832 5831 5830 5828 5827 5825 5824 5822 5820 5818 5816 5814 5812 5810 5808
5834 5836 5837 5838 5839 5840 5841 5841 5842 5842 5843 5843 5843 5843 5843 5842 5842 5842 5841 5841 5840 5839 5838 5837 5836 5834 5833 5832 5830 5829 5827 5826 5824 5822 5820 5819 5817 5815 5813 5810 5808 5806 5803
5832 5834 5835 5836 5837 5838 5839 5839 5840 5841 5841 5841 5841 5841 5841 5840 5840 5840 5839 5838 5838 5837 5836 5835 5833 5832 5831 5829 5828 5826 5824 5822 5820 5819 5817 5815 5813 5811 5808 5806 5803 5801 5798
5830 5831 5833 5834 5835 5836 5837 5837 5838 5839 5839 5839 5839 5839 5839 5838 5838 5837 5837 5836 5835 5834 5833 5832 5831 5829 5828 5826 5824 5823 5821 5819 5817 5815 5813 5811 5809 5806 5804 5801 5798 5795 5792
5827 5829 5830 5831 5832 5833 5834 5835 5836 5836 5837 5837 5837 5836 5836 5836 5835 5835 5834 5833 5832 5831 5831 5829 5828 5826 5824 5823 5821 5819 5817 5815 5813 5810 5808 5806 5803 5801 5798 5795 5792 5789 5786
5824 5826 5827 5828 5829 5830 5831 5832 5833 5833 5834 5834 5834 5834 5833 5833 5832 5832 5831 5830 5829 5828 5827 5825 5824 5822 5820 5818 5817 5815 5813 5810 5808 5806 5803 5801 5798 5795 5792 5789 5786 5782 5779
5821 5823 5824 5825 5826 5827 5828 5829 5829 5830 5830 5831 5831 5830 5830 5829 5829 5828 5827 5827 5825 5824 5823 5821 5819 5818 5816 5814 5812 5810 5808 5805 5803 5800 5797 5795 5792 5788 5785 5782 5778 5775 5771
5818 5819 5820 5822 5823 5824 5824 5825 5826 5827 5827 5827 5827 5827 5826 5825 5825 5824 5823 5822 5821 5820 5818 5816 5815 5813 5811 5809 5807 5804 5802 5799 5797 5794 5791 5788 5784 5781 5778 5775 5771 5767 5763